Weather History for KAVK - June, 2012

Change the Weather History Date:

Saturday, June 30, 2012

  Actual Average Record
Temperature  
Mean Temperature 90 °F -  
Max Temperature 104 °F 96 °F - (-1)
Min Temperature 75 °F 71 °F - (-1)
Cooling Degree Days 24    
Growing Degree Days 40 (Base 50)    
Moisture  
Dew Point 59 °F    
Average Humidity 37    
Maximum Humidity 57    
Minimum Humidity 20    
Precipitation  
Precipitation 0.00 in - - ()
Sea Level Pressure  
Sea Level Pressure 29.83 in    
Wind  
Wind Speed 14 mph (South)    
Max Wind Speed 22 mph    
Max Gust Speed 32 mph    
Visibility 10 miles    
Events      
Averages and records for this station are not official NWS values.
T = Trace of Precipitation, MM = Missing Value Source: NWS Daily Summary

Daily Weather History Graph

Daily Weather History Graph

Search for Another Location

Airport or City:

Trip Planner

Search our weather history database for the weather conditions in past years. The results will help you decide how hot, cold, wet, or windy it might be!

Date:

Astronomy

Jun. 30, 2012 Rise Set
Actual Time 6:19 AM CDT 8:57 PM CDT
Civil Twilight 5:48 AM CDT 9:28 PM CDT
Nautical Twilight 5:10 AM CDT 10:06 PM CDT
Astronomical Twilight 4:27 AM CDT 10:48 PM CDT
Moon 5:56 PM CDT (6/30) 3:13 AM CDT (6/30)
Length of Visible Light 15h 39m
Length of Day
14h 38m
Waxing Gibbous, 87% of the Moon is Illuminated
Jun 30
Waxing Gibbous
Jul 3
Full
Jul 10
Last Quarter
Jul 18
New
Jul 26
First Quarter

Hourly Weather History & Observations

Time (CDT) Temp. Heat Index Dew Point Humidity Pressure Visibility Wind Dir Wind Speed Gust Speed Precip Events Conditions
12:05 AM 84.2 °F 83.8 °F 59.0 °F 42% 29.84 in 10.0 mi South 13.8 mph - N/A   Clear
12:25 AM 84.2 °F 83.8 °F 59.0 °F 42% 29.84 in 10.0 mi South 12.7 mph - N/A   Clear
12:45 AM 82.4 °F 82.5 °F 59.0 °F 45% 29.84 in 10.0 mi South 12.7 mph - N/A   Clear
1:05 AM 82.4 °F 82.5 °F 59.0 °F 45% 29.84 in 10.0 mi South 12.7 mph 17.3 mph N/A   Clear
1:25 AM 82.4 °F 82.5 °F 59.0 °F 45% 29.84 in 10.0 mi South 12.7 mph - N/A   Clear
1:45 AM 80.6 °F 81.1 °F 59.0 °F 48% 29.84 in 10.0 mi South 10.4 mph - N/A   Clear
2:05 AM 78.8 °F - 59.0 °F 51% 29.85 in 10.0 mi SSW 9.2 mph - N/A   Clear
2:25 AM 77.0 °F - 59.0 °F 54% 29.84 in 10.0 mi South 11.5 mph - N/A   Clear
2:45 AM 77.0 °F - 59.0 °F 54% 29.84 in 10.0 mi South 9.2 mph - N/A   Clear
3:05 AM 75.2 °F - 59.0 °F 57% 29.84 in 10.0 mi SSW 10.4 mph - N/A   Clear
3:25 AM 75.2 °F - 59.0 °F 57% 29.83 in 10.0 mi South 9.2 mph - N/A   Clear
3:45 AM 75.2 °F - 59.0 °F 57% 29.84 in 10.0 mi SSW 10.4 mph - N/A   Clear
4:05 AM 77.0 °F - 60.8 °F 57% 29.83 in 10.0 mi South 11.5 mph - N/A   Clear
4:25 AM 77.0 °F - 60.8 °F 57% 29.84 in 10.0 mi SSW 11.5 mph - N/A   Clear
4:45 AM 78.8 °F - 60.8 °F 54% 29.84 in 10.0 mi SSW 10.4 mph - N/A   Clear
5:05 AM 77.0 °F - 60.8 °F 57% 29.85 in 10.0 mi SSW 10.4 mph - N/A   Clear
5:25 AM 77.0 °F - 60.8 °F 57% 29.85 in 10.0 mi SSW 11.5 mph - N/A   Clear
6:05 AM 77.0 °F - 60.8 °F 57% 29.85 in 10.0 mi SSW 12.7 mph - N/A   Clear
6:25 AM 77.0 °F - 60.8 °F 57% 29.85 in 10.0 mi SSW 12.7 mph - N/A   Clear
6:45 AM 77.0 °F - 60.8 °F 57% 29.84 in 10.0 mi SSW 12.7 mph - N/A   Clear
7:05 AM 78.8 °F - 60.8 °F 54% 29.84 in 10.0 mi South 12.7 mph - N/A   Clear
7:25 AM 80.6 °F 81.8 °F 62.6 °F 54% 29.85 in 10.0 mi SSW 13.8 mph 17.3 mph N/A   Clear
7:45 AM 82.4 °F 83.4 °F 62.6 °F 51% 29.85 in 10.0 mi South 13.8 mph 19.6 mph N/A   Clear
8:05 AM 84.2 °F 85.0 °F 62.6 °F 48% 29.85 in 10.0 mi SSW 16.1 mph 19.6 mph N/A   Clear
8:25 AM 84.2 °F 85.0 °F 62.6 °F 48% 29.85 in 10.0 mi South 18.4 mph - N/A   Clear
8:45 AM 86.0 °F 86.6 °F 62.6 °F 45% 29.85 in 10.0 mi SSW 20.7 mph 24.2 mph N/A   Clear
9:05 AM 87.8 °F 88.5 °F 62.6 °F 43% 29.85 in 10.0 mi SSW 18.4 mph 26.5 mph N/A   Clear
9:25 AM 89.6 °F 90.1 °F 62.6 °F 40% 29.85 in 10.0 mi SSW 19.6 mph 26.5 mph N/A   Clear
9:45 AM 91.4 °F 92.1 °F 62.6 °F 38% 29.86 in 10.0 mi SSW 17.3 mph 23.0 mph N/A   Clear
10:05 AM 91.4 °F 91.4 °F 60.8 °F 36% 29.86 in 10.0 mi SW 15.0 mph 18.4 mph N/A   Clear
10:25 AM 93.2 °F 93.3 °F 60.8 °F 34% 29.85 in 10.0 mi SSW 16.1 mph 24.2 mph N/A   Clear
10:45 AM 95.0 °F 94.4 °F 59.0 °F 30% 29.85 in 10.0 mi SSW 18.4 mph 24.2 mph N/A   Clear
11:05 AM 95.0 °F 94.4 °F 59.0 °F 30% 29.85 in 10.0 mi SSW 19.6 mph 25.3 mph N/A   Clear
11:25 AM 96.8 °F 96.2 °F 59.0 °F 28% 29.85 in 10.0 mi South 18.4 mph 21.9 mph N/A   Clear
11:45 AM 98.6 °F 97.6 °F 57.2 °F 25% 29.84 in 10.0 mi SSW 13.8 mph 24.2 mph N/A   Clear
12:05 PM 98.6 °F 98.5 °F 59.0 °F 27% 29.83 in 10.0 mi South 18.4 mph 27.6 mph N/A   Clear
12:25 PM 100.4 °F 99.7 °F 57.2 °F 24% 29.83 in 10.0 mi SSW 19.6 mph 26.5 mph N/A   Clear
12:45 PM 100.4 °F 99.7 °F 57.2 °F 24% 29.83 in 10.0 mi South 17.3 mph 27.6 mph N/A   Clear
1:05 PM 102.2 °F 101.4 °F 57.2 °F 22% 29.82 in 10.0 mi SSE 19.6 mph 24.2 mph N/A   Clear
1:25 PM 102.2 °F 100.9 °F 55.4 °F 21% 29.82 in 10.0 mi South 16.1 mph 25.3 mph N/A   Clear
1:45 PM 102.2 °F 100.9 °F 55.4 °F 21% 29.82 in 10.0 mi South 19.6 mph 27.6 mph N/A   Clear
2:05 PM 102.2 °F 100.9 °F 55.4 °F 21% 29.81 in 10.0 mi South 21.9 mph 28.8 mph N/A   Clear
2:25 PM 102.2 °F 100.9 °F 55.4 °F 21% 29.81 in 10.0 mi SSE 21.9 mph 28.8 mph N/A   Clear
2:45 PM 102.2 °F 101.4 °F 57.2 °F 22% 29.81 in 10.0 mi South 21.9 mph 32.2 mph N/A   Clear
3:05 PM 102.2 °F 100.9 °F 55.4 °F 21% 29.81 in 10.0 mi South 16.1 mph 31.1 mph N/A   Clear
3:25 PM 102.2 °F 101.4 °F 57.2 °F 22% 29.80 in 10.0 mi South 18.4 mph 27.6 mph N/A   Clear
3:45 PM 102.2 °F 100.9 °F 55.4 °F 21% 29.80 in 10.0 mi SSE 20.7 mph 28.8 mph N/A   Clear
4:05 PM 102.2 °F 100.9 °F 55.4 °F 21% 29.80 in 10.0 mi South 18.4 mph 24.2 mph N/A   Clear
4:25 PM 104.0 °F 102.9 °F 55.4 °F 20% 29.80 in 10.0 mi South 21.9 mph 27.6 mph N/A   Clear
4:45 PM 102.2 °F 100.9 °F 55.4 °F 21% 29.79 in 10.0 mi South 12.7 mph - N/A   Clear
5:05 PM 102.2 °F 100.9 °F 55.4 °F 21% 29.79 in 10.0 mi SSE 20.7 mph 24.2 mph N/A   Clear
5:25 PM 102.2 °F 100.9 °F 55.4 °F 21% 29.78 in 10.0 mi South 19.6 mph 24.2 mph N/A   Clear
5:45 PM 102.2 °F 101.4 °F 57.2 °F 22% 29.78 in 10.0 mi South 17.3 mph 27.6 mph N/A   Clear
6:05 PM 102.2 °F 101.4 °F 57.2 °F 22% 29.78 in 10.0 mi South 16.1 mph 27.6 mph N/A   Clear
6:25 PM 100.4 °F 98.8 °F 55.4 °F 22% 29.78 in 10.0 mi SSE 20.7 mph 27.6 mph N/A   Clear
6:45 PM 100.4 °F 98.8 °F 55.4 °F 22% 29.79 in 10.0 mi South 17.3 mph 26.5 mph N/A   Clear
6:50 PM 100.4 °F 98.8 °F 55.4 °F 22% 29.79 in 10.0 mi South 19.6 mph 26.5 mph N/A   Clear